Temperature
9 10 9 9 9 9 8 8 8 10 11 11 11 11 11 11 11 10 9 8 7 6 5 5 4 4 4 4 5 5 5 5 5 5 5 4 5 5 5 5 5 5 4 4
8 9 9 9 9 9 9 9 9 10 10 12 12 12 12 11 10 9 9 7 6 5 5 4 4 3 3 4 4 4 4 4 4 4 4 4 4 4 4 4 4 3 3 3
8 9 8 7 9 9 9 9 9 9 10 11 11 11 11 11 10 9 8 7 6 5 4 3 3 3 3 3 3 3 3 3 3 3 3 3 3 3 3 2 2 2 1 1
8 8 7 9 10 11 10 10 10 10 11 11 11 11 11 10 10 9 8 6 5 4 3 3 2 2 2 2 2 2 2 2 2 2 2 2 2 2 1 1 1 1 1 0
7 8 8 9 10 10 9 9 10 10 11 11 10 10 9 9 9 8 7 6 5 4 3 2 2 1 1 1 1 1 1 1 1 1 1 1 1 1 1 0 0 0 -0 -0
7 7 8 9 9 10 10 9 10 10 10 10 10 8 8 8 8 7 6 5 4 3 2 2 1 1 1 1 1 1 1 1 1 1 1 1 0 0 0 -0 -0 -1 -1 -1
7 7 8 9 9 9 8 8 9 10 10 10 9 8 8 7 7 6 5 4 3 3 2 1 1 1 1 1 0 0 0 0 0 0 0 0 0 -0 -0 -1 -1 -1 -1 -1
7 7 7 9 9 9 8 9 9 9 9 9 8 8 7 6 6 5 4 3 3 2 1 1 1 1 0 0 0 0 0 0 0 0 0 0 -0 -0 -1 -1 -1 -1 -1 -2
8 8 9 9 9 9 9 9 8 8 8 8 8 7 6 6 5 4 4 3 2 2 1 1 1 1 1 0 0 0 0 0 0 0 -0 -0 -0 -0 -1 -1 -1 -2 -2 -2
8 9 10 9 9 8 8 8 8 8 7 7 7 7 6 5 5 4 3 3 2 2 1 1 1 0 1 0 0 0 0 0 0 -0 -0 -0 -1 -1 -1 -1 -1 -2 -2 -2
8 9 9 9 8 8 7 7 7 7 7 7 7 6 6 5 5 4 4 3 2 2 2 1 1 1 1 0 0 0 0 0 -0 -0 -0 -0 -0 -1 -1 -1 -1 -2 -2 -2
7 9 8 8 7 7 7 6 6 6 6 6 6 6 5 5 4 4 3 3 3 2 2 2 1 1 1 1 0 0 0 0 0 -0 -0 -0 -0 -1 -1 -1 -2 -2 -2 -3
8 8 8 7 6 6 6 6 6 6 5 5 5 5 5 4 4 4 3 3 3 3 2 2 1 1 1 1 1 0 0 0 0 -0 -0 -0 -0 -1 -1 -1 -2 -2 -2 -3
7 7 6 6 5 5 5 5 5 5 5 4 4 4 4 4 3 3 3 3 3 2 2 2 2 1 1 1 1 1 0 0 -0 -0 -0 -0 -1 -1 -1 -2 -2 -2 -3 -3
6 5 5 5 5 4 4 4 4 4 3 3 3 3 3 3 3 3 3 2 2 2 2 2 1 1 1 1 1 1 0 0 -0 -0 -0 -1 -1 -1 -2 -2 -2 -3 -3 -3
5 4 4 4 3 3 3 3 3 3 2 2 3 3 2 2 2 2 2 2 2 2 2 2 2 2 1 1 1 0 0 0 -0 -0 -1 -1 -1 -2 -2 -2 -2 -3 -3 -4
4 3 2 2 2 2 2 2 2 2 2 2 2 2 2 2 2 2 2 2 2 2 2 2 2 1 1 1 0 0 0 -0 -0 -0 -1 -1 -1 -2 -2 -2 -3 -3 -3 -4
3 3 2 2 2 2 2 1 1 1 1 2 2 2 2 2 2 2 1 1 1 1 1 1 1 1 1 0 0 0 -0 -0 -0 -1 -1 -1 -1 -2 -2 -3 -3 -3 -4 -4
2 2 1 1 1 1 1 1 1 1 1 1 1 1 1 1 1 1 1 1 1 1 1 1 1 0 0 0 -0 -0 -0 -1 -1 -1 -1 -1 -2 -2 -2 -3 -3 -3 -4 -4
0 1 1 1 1 1 1 1 1 1 1 1 1 1 1 1 1 0 0 0 1 0 0 0 0 0 0 -0 -0 -0 -1 -1 -1 -1 -1 -2 -2 -2 -3 -3 -3 -4 -4 -4
-0 -0 0 0 0 0 0 0 0 1 1 0 0 0 0 0 -0 -0 -0 -0 -0 -0 -0 -0 -0 -0 -0 -0 -1 -1 -1 -1 -1 -1 -2 -2 -2 -3 -3 -3 -3 -4 -4 -5
-0 -0 -0 -0 -0 -0 -0 -0 -0 -0 -0 -0 -0 -0 -0 -0 -0 -1 -1 -1 -1 -1 -1 -1 -1 -1 -1 -1 -1 -1 -1 -2 -2 -2 -2 -2 -2 -3 -3 -3 -4 -4 -4 -5
-0 -0 -0 -0 -0 -1 -1 -1 -1 -1 -1 -1 -1 -1 -1 -1 -1 -1 -1 -1 -1 -1 -1 -1 -1 -1 -2 -2 -2 -2 -2 -2 -2 -2 -2 -3 -3 -3 -3 -4 -4 -4 -5 -5
-1 -1 -1 -1 -1 -1 -1 -1 -1 -1 -1 -1 -1 -1 -1 -1 -1 -1 -2 -1 -2 -2 -1 -1 -2 -2 -2 -2 -2 -2 -2 -2 -3 -3 -3 -3 -3 -3 -4 -4 -4 -5 -5 -5
-1 -1 -1 -1 -1 -1 -1 -2 -2 -2 -2 -2 -2 -2 -2 -2 -2 -2 -2 -2 -2 -2 -2 -2 -2 -2 -3 -3 -3 -3 -3 -3 -3 -3 -3 -3 -4 -4 -4 -4 -4 -5 -5 -6
-1 -1 -1 -2 -2 -2 -2 -2 -2 -2 -2 -2 -2 -2 -2 -3 -3 -2 -2 -2 -2 -2 -2 -3 -3 -3 -3 -3 -3 -3 -3 -4 -4 -4 -4 -4 -4 -4 -4 -5 -5 -5 -5 -6
-2 -2 -2 -2 -2 -2 -2 -3 -3 -3 -3 -3 -3 -3 -3 -3 -3 -3 -3 -3 -3 -3 -3 -3 -3 -3 -4 -4 -4 -4 -4 -4 -4 -4 -4 -5 -5 -5 -5 -5 -5 -6 -6 -6
Wind_Speed
1 2 3 5 8 10 9 7 4 1 4 8 9 8 7 6 6 6 7 6 6 4 4 5 5 5 5 5 5 6 6 7 7 7 7 8 8 9 9 10 10 9 10 10
1 3 3 5 7 10 11 11 8 4 3 2 6 5 5 5 6 6 6 7 6 6 5 5 5 4 5 5 5 6 7 7 7 7 7 8 8 9 9 10 10 10 11 10
2 3 2 7 11 12 10 8 9 9 6 5 5 5 4 4 4 5 6 7 7 6 6 6 5 5 5 5 5 6 6 7 7 7 7 8 9 9 9 9 10 10 10 10
1 1 5 2 2 4 9 9 8 6 4 4 3 2 2 3 3 5 7 7 7 6 6 6 6 6 6 6 6 6 6 6 6 6 7 8 8 9 8 7 8 8 9 9
2 4 5 4 4 3 4 5 9 9 5 2 2 0 1 3 5 6 6 7 7 7 7 6 6 6 6 6 6 6 6 6 5 6 7 7 8 7 6 7 7 7 7 8
2 2 3 3 4 2 1 2 2 6 6 4 4 2 3 5 7 7 7 7 7 6 7 7 6 6 7 6 6 6 5 6 6 6 7 7 7 6 6 6 7 6 6 6
4 3 3 3 4 3 2 2 4 4 4 4 2 2 5 7 6 7 7 7 7 7 6 6 6 6 7 6 6 6 6 6 6 6 6 6 6 5 5 5 5 5 5 5
4 4 4 4 4 1 2 4 4 4 4 4 4 5 5 6 7 8 7 7 7 6 6 6 6 6 7 6 6 6 6 6 6 6 5 5 5 4 4 4 5 4 4 4
4 3 3 3 3 4 4 3 3 3 4 3 3 3 5 6 7 7 8 7 7 7 7 6 5 7 7 6 6 6 6 6 5 5 4 4 4 4 3 3 3 3 3 2
3 2 5 5 4 4 4 3 4 3 2 2 1 2 4 5 7 7 8 8 7 8 8 7 6 7 7 8 7 7 7 6 5 5 4 4 3 3 3 3 3 2 2 2
5 4 3 4 4 4 4 4 4 3 2 2 0 1 3 4 7 7 8 8 8 8 8 8 8 8 8 8 8 7 7 6 5 5 5 4 4 4 5 4 3 3 2 2
3 1 2 4 6 5 4 3 3 2 2 2 1 2 2 4 6 7 8 8 8 8 9 9 9 9 9 9 8 8 6 6 5 4 4 4 4 4 6 4 5 5 4 3
2 4 4 6 6 5 4 3 2 2 2 3 2 2 3 3 5 7 8 9 9 9 9 10 9 9 9 8 8 8 7 6 5 5 5 4 4 4 3 2 2 2 2 1
4 3 2 3 4 4 3 2 2 3 3 3 2 2 2 3 4 7 8 9 9 9 9 10 10 10 9 9 8 8 7 7 6 5 5 4 4 3 3 3 2 2 3 3
4 3 3 4 4 3 2 2 3 3 3 3 1 2 3 4 5 6 6 8 8 8 9 10 10 10 9 9 9 8 7 6 5 5 5 4 4 3 2 2 2 2 1 2
5 4 3 3 2 1 1 2 3 4 3 3 3 3 3 4 4 4 6 8 9 10 10 10 10 9 10 10 9 7 7 10 8 6 5 4 4 4 3 3 3 2 3 2
5 4 3 1 1 1 2 2 3 4 4 4 4 3 3 3 4 5 6 7 8 8 8 9 9 9 10 10 9 7 6 8 10 7 5 5 4 4 4 3 3 3 3 4
5 4 3 1 1 2 3 3 4 4 4 4 4 3 3 4 5 5 5 5 5 6 7 8 8 9 9 10 9 7 7 7 6 6 6 5 5 4 4 4 4 4 3 4
5 4 3 3 2 2 3 3 4 4 4 3 3 3 3 4 4 3 4 6 7 8 7 7 12 11 10 11 10 7 8 8 7 6 6 7 6 5 5 4 4 4 4 4
5 4 3 3 3 2 3 3 4 4 3 3 3 2 2 2 2 3 4 6 6 5 6 8 10 9 10 11 12 7 8 9 8 7 6 6 6 6 5 5 5 5 4 4
4 3 3 3 3 3 3 4 4 4 3 3 2 3 3 2 2 3 4 5 4 4 7 11 8 8 8 10 12 8 8 8 8 8 7 7 6 6 6 5 5 5 5 4
3 3 3 3 3 4 4 4 4 4 4 3 3 2 2 2 2 3 4 4 3 6 6 6 6 9 12 12 8 9 9 9 8 7 7 7 7 6 6 6 5 5 5 5
2 3 3 4 4 4 4 4 4 4 4 4 3 3 3 3 2 3 3 2 3 6 5 5 8 13 15 10 8 8 9 9 8 7 7 7 6 6 6 6 5 5 5 5
2 3 3 3 4 3 4 4 4 4 4 3 3 3 3 3 3 2 2 3 5 6 5 7 11 13 14 7 7 8 8 8 7 7 6 6 6 6 6 5 5 5 5 6
1 1 2 2 3 3 4 4 4 4 4 3 3 3 3 2 3 3 3 3 5 5 4 7 11 12 8 6 7 7 7 7 7 7 6 6 6 6 6 5 5 5 5 5
1 1 1 1 2 2 3 3 3 4 4 4 4 3 3 3 3 3 3 3 5 5 3 4 5 7 6 6 7 7 7 7 7 7 7 6 6 6 5 5 6 5 5 5
2 2 2 2 2 1 2 3 3 4 4 4 5 4 4 4 4 4 4 3 3 3 3 3 4 4 5 6 6 6 6 6 6 6 6 6 5 5 6 6 5 5 4 5
Wind_Direction
46 58 149 191 197 199 202 216 231 332 150 178 174 167 162 154 147 151 149 149 148 137 122 114 100 85 75 66 53 59 64 59 54 53 53 54 55 54 54 56 60 61 63 62
208 193 212 236 224 211 211 223 243 277 290 175 143 144 155 161 165 176 166 157 147 139 128 117 108 98 90 80 67 71 72 69 65 63 62 61 62 62 63 63 62 64 66 68
211 151 251 250 225 213 208 203 211 225 222 156 151 169 173 171 176 176 157 147 144 141 129 116 112 108 102 92 81 80 77 72 71 73 71 69 72 71 69 68 69 69 69 71
278 184 244 206 59 190 206 216 213 220 209 167 151 143 129 135 157 149 141 141 139 134 127 123 116 111 106 95 90 89 84 80 81 83 82 81 80 76 72 71 73 73 70 69
252 262 265 173 147 151 183 219 212 214 214 160 117 5 186 106 100 113 119 122 124 123 125 123 120 121 115 106 100 97 94 90 88 92 92 89 86 81 79 81 77 75 74 73
233 258 279 104 113 93 185 218 160 179 182 170 153 205 180 126 109 107 106 109 115 120 121 121 120 121 118 116 110 106 103 99 95 97 98 95 91 87 83 84 83 83 79 78
240 250 279 114 135 151 203 132 73 94 117 134 148 134 136 131 124 125 123 123 125 127 125 123 125 125 122 119 116 114 110 107 103 101 103 104 99 95 97 97 93 88 84 75
207 229 239 136 147 167 100 85 74 76 77 82 94 113 133 138 138 137 136 139 142 134 127 127 133 131 127 126 121 119 118 115 112 113 117 121 119 116 116 114 105 98 90 79
203 202 128 140 112 96 80 73 61 66 69 89 111 148 156 158 154 155 155 157 153 144 140 139 142 143 144 144 141 135 128 125 124 124 128 135 132 126 118 109 106 105 101 98
271 232 169 160 135 106 82 80 67 60 58 81 112 154 165 166 164 164 165 164 160 156 157 158 156 152 153 153 153 147 144 145 146 143 135 116 102 109 105 93 97 103 104 103
247 242 175 156 135 117 102 90 77 56 41 41 55 208 190 183 175 172 172 168 168 171 170 167 163 159 157 160 160 157 154 152 148 142 135 113 84 70 91 72 95 110 103 93
231 269 150 128 111 96 95 81 57 30 0 3 274 240 221 200 179 173 173 171 175 178 173 170 169 166 164 166 166 161 158 157 155 151 138 132 124 97 87 107 92 87 90 87
109 57 68 103 101 83 73 53 21 342 308 297 284 240 226 210 184 174 175 180 184 183 175 171 172 172 171 170 169 167 164 162 161 160 156 156 148 143 144 129 130 129 128 98
95 98 128 120 106 84 62 17 340 311 295 278 266 243 224 214 192 185 186 185 181 178 174 173 175 177 173 169 168 166 161 163 164 164 157 154 154 157 161 170 196 228 209 217
123 96 93 85 81 73 47 2 332 314 316 312 285 240 224 218 212 203 185 173 172 179 180 180 182 180 170 167 168 166 161 162 161 155 151 150 151 156 168 182 199 211 217 238
128 112 106 104 88 37 354 330 311 307 310 304 288 261 242 228 217 202 179 170 179 191 189 187 189 179 168 166 167 167 169 170 165 159 158 160 164 173 186 197 209 223 232 232
138 154 158 174 224 312 330 324 310 305 303 296 288 275 247 221 209 203 192 186 191 194 189 188 185 172 170 171 171 171 166 171 172 168 172 174 177 186 192 199 212 227 235 238
101 106 110 101 13 330 321 322 317 308 299 295 294 271 238 224 219 213 197 182 182 190 191 184 173 169 173 174 173 171 169 172 176 178 177 180 184 188 192 203 217 229 240 251
90 84 73 55 24 339 319 319 318 310 307 307 295 272 254 243 230 209 185 185 196 206 201 182 177 175 179 182 175 171 171 173 178 180 178 191 195 193 197 207 218 225 233 239
81 72 60 40 23 2 339 332 323 316 319 317 303 290 277 263 235 202 197 210 215 208 179 177 180 183 183 184 180 176 177 178 182 183 183 187 193 199 203 210 217 225 232 239
80 66 51 30 11 0 353 341 333 329 329 326 311 295 285 276 246 212 211 230 221 182 178 184 185 187 184 186 185 181 182 183 186 187 189 193 197 201 205 210 219 227 233 239
66 50 34 18 4 356 356 351 348 342 337 332 325 316 303 285 263 245 236 236 210 191 187 191 189 192 190 187 186 185 187 188 190 189 190 193 196 201 206 209 217 226 231 235
61 41 21 9 356 342 343 354 356 345 333 326 317 307 295 281 261 252 264 244 205 208 202 200 201 200 197 191 188 188 189 190 192 192 193 194 196 198 204 210 216 222 228 235
48 31 11 357 348 345 343 344 341 333 322 315 311 306 299 296 286 261 270 260 239 232 220 213 211 208 201 191 187 188 190 191 191 190 191 192 195 198 203 208 215 222 228 237
29 356 341 339 339 334 330 330 331 333 332 326 321 320 315 301 292 294 281 264 258 249 231 220 217 212 201 186 187 188 189 191 191 190 192 194 198 200 204 208 215 222 229 237
277 295 305 306 306 317 324 326 324 326 330 327 325 322 321 316 306 298 285 272 264 254 237 216 211 210 193 184 187 188 189 194 201 199 194 195 198 200 205 212 219 224 232 239
243 259 279 290 294 313 317 314 312 316 320 319 315 314 313 310 303 295 289 278 268 251 227 209 207 200 187 182 184 187 187 187 187 187 189 194 197 203 207 212 218 224 232 241
Height
1452 1450 1452 1454 1456 1459 1463 1463 1463 1455 1454 1454 1455 1457 1459 1462 1464 1466 1467 1468 1469 1470 1470 1470 1470 1470 1469 1468 1468 1467 1467 1466 1466 1465 1464 1464 1463 1462 1462 1461 1460 1460 1459 1459
1454 1451 1452 1453 1453 1454 1457 1458 1457 1456 1455 1450 1452 1455 1458 1460 1461 1463 1464 1465 1466 1467 1467 1467 1467 1467 1467 1466 1466 1466 1465 1465 1465 1464 1463 1463 1462 1462 1461 1461 1460 1460 1459 1459
1453 1450 1453 1456 1447 1449 1450 1449 1453 1456 1454 1451 1452 1454 1456 1458 1459 1460 1462 1463 1463 1464 1465 1465 1465 1465 1465 1465 1465 1465 1464 1464 1464 1464 1463 1463 1462 1462 1462 1461 1461 1461 1461 1461
1452 1455 1460 1445 1439 1439 1443 1445 1447 1447 1447 1448 1451 1453 1454 1456 1457 1458 1459 1460 1461 1461 1462 1462 1463 1463 1463 1463 1463 1464 1464 1464 1464 1463 1463 1463 1463 1463 1463 1463 1463 1463 1463 1463
1454 1453 1446 1441 1439 1440 1442 1443 1442 1444 1446 1448 1450 1451 1453 1453 1454 1455 1456 1457 1458 1459 1460 1460 1461 1461 1462 1462 1463 1463 1463 1463 1463 1464 1464 1464 1464 1464 1464 1465 1465 1465 1465 1465
1453 1455 1448 1442 1440 1439 1442 1443 1439 1440 1444 1446 1448 1452 1452 1452 1453 1453 1454 1455 1456 1457 1457 1458 1459 1460 1461 1461 1462 1462 1463 1464 1464 1465 1465 1465 1466 1466 1466 1467 1467 1467 1467 1467
1453 1451 1444 1440 1439 1441 1446 1444 1441 1441 1443 1445 1447 1449 1451 1450 1451 1452 1452 1453 1454 1455 1456 1456 1458 1459 1460 1461 1461 1462 1463 1464 1465 1466 1466 1467 1467 1468 1468 1468 1468 1468 1468 1468
1448 1451 1449 1440 1440 1442 1443 1441 1441 1442 1443 1445 1446 1447 1448 1449 1449 1450 1450 1451 1452 1453 1454 1455 1456 1458 1459 1460 1461 1462 1464 1465 1466 1467 1468 1468 1469 1469 1469 1469 1469 1469 1469 1468
1443 1444 1439 1438 1439 1440 1441 1442 1442 1443 1444 1444 1445 1446 1447 1447 1447 1448 1448 1449 1450 1451 1452 1454 1455 1457 1458 1460 1461 1463 1464 1466 1467 1468 1468 1469 1469 1470 1470 1470 1470 1470 1469 1469
1438 1436 1436 1437 1438 1439 1440 1441 1442 1442 1443 1443 1444 1444 1445 1445 1445 1446 1446 1447 1448 1449 1451 1452 1454 1455 1458 1459 1461 1463 1465 1466 1467 1468 1469 1469 1470 1470 1470 1470 1470 1469 1469 1468
1436 1435 1435 1436 1437 1438 1439 1440 1441 1441 1441 1442 1442 1442 1442 1443 1443 1443 1444 1445 1446 1448 1449 1451 1452 1454 1457 1459 1461 1463 1465 1466 1467 1468 1469 1469 1470 1470 1470 1470 1470 1469 1468 1467
1435 1432 1433 1435 1435 1437 1438 1439 1439 1439 1440 1440 1440 1440 1440 1440 1440 1441 1441 1443 1444 1445 1447 1449 1451 1453 1456 1458 1460 1462 1464 1465 1466 1467 1468 1469 1469 1469 1469 1469 1469 1468 1467 1466
1431 1431 1432 1434 1435 1436 1437 1437 1437 1437 1437 1437 1437 1437 1437 1437 1437 1438 1438 1439 1441 1443 1444 1446 1449 1451 1454 1456 1458 1460 1462 1464 1465 1466 1467 1467 1468 1468 1468 1468 1467 1467 1466 1465
1429 1430 1432 1433 1434 1434 1434 1435 1435 1435 1435 1434 1434 1434 1434 1434 1434 1434 1435 1436 1438 1440 1442 1444 1446 1449 1452 1454 1456 1458 1460 1462 1464 1465 1465 1466 1466 1466 1466 1466 1465 1464 1464 1462
1427 1428 1430 1430 1431 1432 1432 1432 1432 1432 1432 1431 1431 1430 1430 1430 1430 1431 1432 1433 1435 1437 1438 1440 1443 1446 1449 1451 1454 1456 1458 1460 1461 1462 1463 1464 1464 1464 1464 1463 1463 1462 1461 1460
1425 1426 1427 1428 1429 1429 1430 1429 1429 1429 1428 1428 1427 1427 1427 1427 1427 1428 1428 1429 1431 1432 1434 1437 1439 1442 1445 1448 1450 1453 1455 1457 1458 1459 1460 1461 1461 1461 1461 1461 1460 1459 1458 1457
1423 1424 1425 1426 1427 1427 1427 1427 1426 1426 1425 1424 1424 1423 1423 1423 1423 1424 1425 1426 1427 1429 1431 1433 1435 1438 1441 1444 1447 1449 1451 1453 1455 1456 1457 1457 1458 1458 1458 1457 1457 1456 1455 1454
1420 1422 1423 1423 1424 1424 1424 1424 1423 1423 1422 1421 1420 1420 1419 1419 1419 1420 1421 1422 1423 1425 1426 1429 1431 1434 1437 1439 1442 1445 1447 1449 1451 1452 1453 1454 1454 1454 1454 1454 1453 1453 1452 1450
1418 1419 1420 1421 1421 1422 1421 1421 1420 1420 1419 1418 1417 1416 1416 1416 1416 1416 1417 1418 1418 1420 1422 1424 1426 1429 1432 1434 1437 1440 1442 1444 1446 1448 1449 1450 1450 1450 1450 1450 1449 1449 1448 1446
1417 1418 1419 1419 1420 1419 1419 1419 1418 1417 1416 1415 1414 1413 1413 1412 1412 1413 1413 1414 1414 1416 1418 1419 1421 1424 1426 1429 1431 1434 1436 1439 1441 1443 1444 1445 1446 1446 1446 1446 1445 1444 1443 1442
1417 1417 1418 1418 1418 1418 1417 1416 1415 1414 1413 1413 1412 1411 1410 1410 1410 1409 1409 1410 1411 1412 1413 1415 1416 1418 1421 1423 1426 1428 1430 1433 1435 1437 1439 1440 1441 1441 1441 1441 1441 1440 1439 1438
1417 1417 1417 1417 1417 1416 1415 1414 1413 1412 1411 1410 1409 1409 1408 1407 1407 1407 1406 1407 1407 1408 1409 1410 1411 1413 1415 1417 1420 1422 1425 1427 1430 1432 1433 1435 1436 1436 1436 1436 1436 1435 1434 1433
1416 1416 1416 1416 1415 1414 1414 1413 1411 1410 1409 1408 1407 1406 1405 1405 1404 1404 1403 1404 1404 1404 1405 1405 1407 1408 1410 1412 1414 1417 1419 1422 1424 1426 1428 1429 1430 1431 1431 1432 1431 1431 1430 1429
1416 1415 1415 1415 1414 1413 1412 1411 1410 1409 1407 1406 1405 1404 1403 1402 1401 1401 1401 1400 1400 1400 1401 1401 1402 1404 1405 1407 1409 1412 1414 1416 1419 1421 1423 1424 1425 1426 1426 1426 1426 1426 1425 1424
1415 1415 1414 1413 1412 1411 1410 1409 1408 1407 1405 1404 1403 1402 1401 1399 1399 1398 1397 1397 1397 1397 1397 1397 1398 1399 1401 1402 1405 1407 1409 1411 1414 1416 1418 1419 1420 1421 1421 1421 1421 1421 1420 1419
1414 1413 1413 1412 1411 1410 1408 1407 1406 1404 1403 1401 1400 1399 1398 1397 1396 1395 1394 1393 1393 1393 1393 1394 1394 1395 1397 1398 1400 1402 1405 1407 1409 1411 1413 1414 1415 1416 1416 1416 1416 1416 1415 1414
1412 1411 1411 1410 1409 1408 1406 1405 1403 1402 1400 1399 1397 1396 1395 1394 1392 1391 1391 1390 1390 1390 1390 1390 1391 1392 1393 1394 1396 1398 1400 1402 1404 1406 1408 1409 1410 1411 1411 1411 1411 1411 1410 1409